User: anonymous   Login
Location: Clermont
(50.2608°N, 4.3172°E)
Time: 00:54:04
(UTC+00:00)
Language:

GENESIS II - Orbit

View from above orbital plane
View from above orbital plane
View from above satellite
View from above satellite

Ground track
Ground track

The orbit data is extracted from the following two-line orbital elements,

1 31789U 07028A   20293.20704065  .00000273  00000-0  23834-4 0  9991
2 31789  64.5030 298.6291 0034540 232.8359 126.9609 15.17384449733948
Epoch (UTC): 19 October 2020 04:58:08
Eccentricity: 0.0034540
inclination: 64.5030°
perigee height: 490 km
apogee height: 537 km
right ascension of ascending node: 298.6291°
argument of perigee: 232.8359°
revolutions per day: 15.17384449
mean anomaly at epoch: 126.9609°
orbit number at epoch: 73394

The dashed part of the orbit path shows where the satellite is in the earth's shadow,  

DLR